Weather History for Detroit Metro, MI

Change the Weather History Date:

Monday, August 26, 2013

  Actual Average Record
Temperature  
Mean Temperature 78 °F 71 °F  
Max Temperature 89 °F 80 °F 96 °F (1953)
Min Temperature 67 °F 62 °F 47 °F (1984)
Degree Days  
Heating Degree Days 0 0  
Month to date heating degree days 8 0  
Since 1 June heating degree days 35 37  
Since 1 July heating degree days 12 2  
Cooling Degree Days 13 6  
Month to date cooling degree days 163 195  
Year to date cooling degree days 729 681  
Since 1 June cooling degree days 626 633  
Growing Degree Days 28 (Base 50)    
Moisture  
Dew Point 66 °F    
Average Humidity 69    
Maximum Humidity 87    
Minimum Humidity 50    
Precipitation  
Precipitation T in 0.10 in 2.11 in (1987)
Month to date precipitation 2.56 2.52  
Year to date precipitation 27.56 21.95  
Snow  
Snow 0.00 in 0.00 in 0.00 in ()
Month to date snowfall 0.0 0.0  
Since 1 June snowfall 0.0 0.0  
Since 1 July snowfall 0.0 0.0  
Snow Depth 0.00 in    
Sea Level Pressure  
Sea Level Pressure 30.08 in    
Wind  
Wind Speed 10 mph (SW)    
Max Wind Speed 20 mph    
Max Gust Speed 23 mph    
Visibility 10 miles    
Events      
T = Trace of Precipitation, MM = Missing Value Source: NWS Daily Summary

Daily Weather History Graph

Daily Weather History Graph

Search for Another Location

Airport:

Trip Planner

Search our weather history database for the weather conditions in past years. The results will help you decide how hot, cold, wet, or windy it might be!

Date:

Astronomy

Aug. 26, 2013 Rise Set
Actual Time 6:52 AM EDT 8:16 PM EDT
Civil Twilight 6:23 AM EDT 8:45 PM EDT
Nautical Twilight 5:48 AM EDT 9:20 PM EDT
Astronomical Twilight 5:10 AM EDT 9:58 PM EDT
Moon 11:18 PM EDT (8/26) 1:00 PM EDT (8/26)
Length of Visible Light 14h 22m
Length of Day
13h 24m
Waning Gibbous, 67% of the Moon is Illuminated
Aug 26
Waning Gibbous
Aug 28
Last Quarter
Sep 5
New
Sep 12
First Quarter
Sep 19
Full

Hourly Weather History & Observations

Time (EDT) Temp. Heat Index Dew Point Humidity Pressure Visibility Wind Dir Wind Speed Gust Speed Precip Events Conditions
12:53 AM 73.0 °F - 63.0 °F 71% 30.17 in 10.0 mi SSW 8.1 mph - N/A   Partly Cloudy
1:53 AM 73.9 °F - 62.1 °F 66% 30.15 in 10.0 mi SSW 6.9 mph - N/A   Partly Cloudy
2:53 AM 72.0 °F - 62.1 °F 71% 30.13 in 10.0 mi South 9.2 mph - N/A   Partly Cloudy
3:53 AM 70.0 °F - 62.1 °F 76% 30.13 in 10.0 mi SSW 6.9 mph - N/A   Scattered Clouds
4:53 AM 70.0 °F - 62.1 °F 76% 30.14 in 10.0 mi SSW 6.9 mph - N/A   Partly Cloudy
5:53 AM 68.0 °F - 62.1 °F 81% 30.14 in 10.0 mi SSW 9.2 mph - N/A   Partly Cloudy
6:53 AM 66.9 °F - 62.1 °F 84% 30.15 in 10.0 mi SSW 4.6 mph - N/A   Scattered Clouds
7:53 AM 69.1 °F - 62.1 °F 78% 30.16 in 9.0 mi SSW 9.2 mph - N/A   Scattered Clouds
8:53 AM 73.0 °F - 62.1 °F 68% 30.14 in 10.0 mi SW 9.2 mph - N/A   Mostly Cloudy
9:53 AM 75.9 °F - 63.0 °F 64% 30.13 in 10.0 mi WSW 11.5 mph - N/A   Mostly Cloudy
10:53 AM 79.0 °F - 64.9 °F 62% 30.13 in 10.0 mi SW 11.5 mph - N/A   Mostly Cloudy
11:53 AM 82.0 °F 83.8 °F 64.9 °F 56% 30.11 in 10.0 mi WSW 13.8 mph - N/A   Overcast
12:53 PM 84.9 °F 87.1 °F 66.0 °F 53% 30.09 in 10.0 mi West 10.4 mph - N/A   Overcast
1:53 PM 87.1 °F 89.2 °F 66.0 °F 49% 30.05 in 10.0 mi SW 15.0 mph 20.7 mph N/A   Overcast
2:53 PM 87.1 °F 90.6 °F 68.0 °F 53% 30.03 in 10.0 mi SSW 17.3 mph 21.9 mph N/A   Mostly Cloudy
3:53 PM 87.1 °F 91.3 °F 69.1 °F 55% 30.00 in 10.0 mi SSW 17.3 mph - N/A   Mostly Cloudy
4:53 PM 87.1 °F 92.0 °F 70.0 °F 57% 29.99 in 10.0 mi SW 16.1 mph - N/A   Overcast
5:53 PM 87.1 °F 92.0 °F 70.0 °F 57% 29.99 in 10.0 mi WSW 13.8 mph - N/A   Overcast
6:53 PM 84.9 °F 89.4 °F 70.0 °F 61% 29.99 in 10.0 mi SW 12.7 mph - N/A   Mostly Cloudy
7:53 PM 84.0 °F 89.0 °F 71.1 °F 65% 29.99 in 10.0 mi SW 10.4 mph - N/A   Mostly Cloudy
8:53 PM 82.9 °F 87.5 °F 71.1 °F 67% 30.00 in 10.0 mi SSW 10.4 mph - N/A   Overcast
9:53 PM 80.1 °F 83.6 °F 71.1 °F 74% 30.01 in 10.0 mi SW 5.8 mph - 0.00 in   Mostly Cloudy
10:53 PM 80.1 °F 83.6 °F 71.1 °F 74% 30.00 in 10.0 mi SW 6.9 mph - N/A   Overcast
11:53 PM 79.0 °F - 71.1 °F 77% 29.99 in 9.0 mi SW 8.1 mph - N/A   Overcast